Regional Weather Roundup
Issued by NWS

Home | Current Version | Previous Version | Graphics & Text | Print | Product List | Glossary Off
Versions: 1 2 3 4 5 6 7 8 9 10 11 12 13 14 15 16 17 18 19 20 21 22 23 24 25 26 27 28 29 30 31 32 33 34 35 36 37 38 39 40 41 42 43 44 45 46 47 48 49 50

000
ASUS43 KFSD 030002
RWRSD

WEATHER ROUNDUP FOR SOUTH DAKOTA
NATIONAL WEATHER SERVICE SIOUX FALLS SD
600 PM CST FRI DEC 02 2016

NOTE: "FAIR" INDICATES FEW OR NO CLOUDS BELOW 12,000 FEET WITH NO
SIGNIFICANT WEATHER AND/OR OBSTRUCTIONS TO VISIBILITY.


SDZ001>005-009-010-012>017-030100-
NORTHWEST AND NORTH CENTRAL SOUTH DAKOTA

CITY           SKY/WX    TMP DP  RH WIND       PRES   REMARKS
BUFFALO          N/A     29  26  89 W8        30.09F WCI  21
FAITH            N/A     23  22  96 S9        30.19S WCI  13
MOBRIDGE       CLOUDY    29  24  82 SE6       30.22S WCI  23
$$

SDZ012>016-024>037-041>051-057-063-072>074-030100-
SOUTHWEST AND SOUTH CENTRAL SOUTH DAKOTA

CITY           SKY/WX    TMP DP  RH WIND       PRES   REMARKS
RAPID CTY ARPT CLEAR     29  24  82 SE3       30.19R
PIERRE         MOCLDY    28  24  85 SE3       30.25S
CUSTER         CLOUDY    27  12  53 S5        30.12S WCI  22
ELLSWORTH AFB  CLEAR     31  27  83 SE5       30.18S WCI  27
PHILIP         CLEAR     25  22  88 CALM      30.23R
PINE RIDGE     MOCLDY    26  22  84 E6        30.19S WCI  19
SPEARFISH      FAIR      27  19  74 S12       30.16S WCI  16
WINNER         FAIR      32  26  78 E5        30.25S WCI  27
$$

SDZ004>011-016>023-039-040-030100-
NORTHEAST SOUTH DAKOTA

CITY           SKY/WX    TMP DP  RH WIND       PRES   REMARKS
ABERDEEN       CLOUDY    28  19  69 CALM      30.30S
WATERTOWN      CLOUDY    24  17  74 NW9       30.27R WCI  14
SISSETON         N/A     27  19  72 N5        30.30R WCI  22
$$

SDZ017-020-022-023-036>040-048>070-030100-
SOUTHEAST SOUTH DAKOTA

CITY           SKY/WX    TMP DP  RH WIND       PRES   REMARKS
SIOUX FALLS    CLOUDY    31  26  82 N7        30.29S WCI  24
HURON          CLOUDY    29  26  89 N3        30.30S
CHAMBERLAIN    CLOUDY    32  30  94 SE3       30.28R
MITCHELL       CLOUDY    31  27  85 N3        30.31S
YANKTON        CLOUDY    34  27  75 NW3       30.31R
$$

ABBREVIATIONS USED IN REMARKS
   TC - TEMPERATURE IN CELSIUS
  WCI - WIND CHILL INDEX
   HX - HEAT INDEX
  VSB - VISIBILITY





USA.gov is the U.S. government's official web portal to all federal, state and local government web resources and services.